When you browse on this site, cookies collect data to enhance your experience and personalize the content and advertising you see.
Visit our Privacy Policy to learn more. By continuing to use the site, you agree to this use of cookies and data.
  • In Spain
  • List of Countries
  • For 7 days
  • Water Temperature
  • Weather Map
  • Weather Widgets
  • user-avatar
    Login

    Hourly Weather Porto Alegre

    Today, 28 March, Saturday

    Time Temperature Precipitation Wind Pressure Humidity
    00:00 +24°C° 0 mm 3 mps 757 mmHg 76%
    01:00 +24°C° 0 mm 2 mps 757 mmHg 77%
    02:00 +23°C° 0 mm 2 mps 757 mmHg 78%
    03:00 +23°C° 0 mm 2 mps 758 mmHg 79%
    04:00 +23°C° 0 mm 2 mps 758 mmHg 79%
    05:00 +23°C° 0 mm 1 mps 757 mmHg 79%
    06:00 +23°C° 0 mm 1 mps 757 mmHg 79%
    07:00 +24°C° 0 mm 1 mps 758 mmHg 73%
    08:00 +25°C° 0 mm 1 mps 758 mmHg 67%
    09:00 +27°C° 0 mm 1 mps 759 mmHg 58%
    10:00 +29°C° 0 mm 1 mps 759 mmHg 52%
    11:00 +31°C° 0 mm 1 mps 758 mmHg 46%
    12:00 +33°C° 0 mm 1 mps 758 mmHg 40%
    13:00 +33°C° 0 mm 1 mps 757 mmHg 39%
    14:00 +34°C° 0 mm 2 mps 757 mmHg 38%
    15:00 +34°C° 0 mm 3 mps 757 mmHg 37%
    16:00 +33°C° 0 mm 3 mps 756 mmHg 43%
    17:00 +31°C° 0 mm 3 mps 756 mmHg 49%
    18:00 +29°C° 0 mm 4 mps 756 mmHg 55%
    19:00 +28°C° 0 mm 4 mps 756 mmHg 59%
    20:00 +27°C° 0 mm 3 mps 757 mmHg 63%
    21:00 +26°C° 0 mm 3 mps 757 mmHg 67%
    22:00 +26°C° 0 mm 2 mps 757 mmHg 69%
    23:00 +26°C° 0 mm 2 mps 757 mmHg 72%

    Tomorrow, 30 March, Monday

    Time Temperature Precipitation Wind Pressure Humidity
    00:00 +25°C° 0 mm 1 mps 759 mmHg 71%
    01:00 +25°C° 0 mm 1 mps 758 mmHg 73%
    02:00 +25°C° 0 mm 1 mps 758 mmHg 75%
    03:00 +22°C° 0 mm 0 mps 758 mmHg 76%
    04:00 +22°C° 0 mm 0 mps 758 mmHg 77%
    05:00 +22°C° 0 mm 0 mps 758 mmHg 78%
    06:00 +22°C° 0 mm 0 mps 758 mmHg 78%
    07:00 +25°C° 0 mm 1 mps 758 mmHg 73%
    08:00 +27°C° 0 mm 1 mps 759 mmHg 67%
    09:00 +28°C° 0 mm 1 mps 759 mmHg 61%
    10:00 +30°C° 0 mm 1 mps 759 mmHg 55%
    11:00 +32°C° 0 mm 1 mps 758 mmHg 49%
    12:00 +34°C° 0 mm 1 mps 758 mmHg 43%
    13:00 +34°C° 0 mm 1 mps 758 mmHg 43%
    14:00 +35°C° 0 mm 2 mps 757 mmHg 43%
    15:00 +35°C° 0 mm 2 mps 757 mmHg 42%
    16:00 +34°C° 0 mm 3 mps 757 mmHg 46%
    17:00 +31°C° 0 mm 3 mps 757 mmHg 50%
    18:00 +30°C° 0 mm 4 mps 757 mmHg 54%
    19:00 +29°C° 0 mm 3 mps 757 mmHg 58%
    20:00 +28°C° 0 mm 3 mps 757 mmHg 61%
    21:00 +27°C° 0 mm 2 mps 757 mmHg 65%
    22:00 +26°C° 0 mm 2 mps 757 mmHg 68%
    23:00 +26°C° 0 mm 2 mps 757 mmHg 71%

    Day after tomorrow, 31 March, Tuesday

    Time Temperature Precipitation Wind Pressure Humidity
    00:00 +25°C° 0 mm 1 mps 757 mmHg 74%
    01:00 +25°C° 0 mm 1 mps 757 mmHg 76%
    02:00 +25°C° 0 mm 1 mps 757 mmHg 78%
    03:00 +22°C° 0 mm 0 mps 756 mmHg 80%
    04:00 +22°C° 0 mm 0 mps 756 mmHg 82%
    05:00 +24°C° 0 mm 1 mps 757 mmHg 83%
    06:00 +23°C° 0 mm 1 mps 757 mmHg 84%
    07:00 +25°C° 0 mm 1 mps 757 mmHg 78%
    08:00 +26°C° 0 mm 1 mps 757 mmHg 73%
    09:00 +28°C° 0 mm 1 mps 757 mmHg 67%
    10:00 +29°C° 0 mm 1 mps 757 mmHg 61%
    11:00 +31°C° 0 mm 2 mps 757 mmHg 55%
    12:00 +34°C° 0 mm 2 mps 757 mmHg 49%
    13:00 +34°C° 0 mm 2 mps 756 mmHg 47%
    14:00 +34°C° 0 mm 3 mps 756 mmHg 46%
    15:00 +34°C° 0 mm 3 mps 756 mmHg 44%
    16:00 +33°C° 0 mm 4 mps 756 mmHg 48%
    17:00 +30°C° 0 mm 4 mps 756 mmHg 53%
    18:00 +29°C° 0 mm 4 mps 756 mmHg 57%
    19:00 +28°C° 0 mm 4 mps 756 mmHg 60%
    20:00 +27°C° 0 mm 3 mps 756 mmHg 64%
    21:00 +27°C° 0 mm 3 mps 757 mmHg 67%
    22:00 +26°C° 0 mm 2 mps 757 mmHg 71%
    23:00 +25°C° 0 mm 2 mps 757 mmHg 74%

    31 March, Tuesday

    Time Temperature Precipitation Wind Pressure Humidity
    00:00 +25°C° 0 mm 1 mps 757 mmHg 74%
    01:00 +25°C° 0 mm 1 mps 757 mmHg 76%
    02:00 +25°C° 0 mm 1 mps 757 mmHg 78%
    03:00 +22°C° 0 mm 0 mps 756 mmHg 80%
    04:00 +22°C° 0 mm 0 mps 756 mmHg 82%
    05:00 +24°C° 0 mm 1 mps 757 mmHg 83%
    06:00 +23°C° 0 mm 1 mps 757 mmHg 84%
    07:00 +25°C° 0 mm 1 mps 757 mmHg 78%
    08:00 +26°C° 0 mm 1 mps 757 mmHg 73%
    09:00 +28°C° 0 mm 1 mps 757 mmHg 67%
    10:00 +29°C° 0 mm 1 mps 757 mmHg 61%
    11:00 +31°C° 0 mm 2 mps 757 mmHg 55%
    12:00 +34°C° 0 mm 2 mps 757 mmHg 49%
    13:00 +34°C° 0 mm 2 mps 756 mmHg 47%
    14:00 +34°C° 0 mm 3 mps 756 mmHg 46%
    15:00 +34°C° 0 mm 3 mps 756 mmHg 44%
    16:00 +33°C° 0 mm 4 mps 756 mmHg 48%
    17:00 +30°C° 0 mm 4 mps 756 mmHg 53%
    18:00 +29°C° 0 mm 4 mps 756 mmHg 57%
    19:00 +28°C° 0 mm 4 mps 756 mmHg 60%
    20:00 +27°C° 0 mm 3 mps 756 mmHg 64%
    21:00 +27°C° 0 mm 3 mps 757 mmHg 67%
    22:00 +26°C° 0 mm 2 mps 757 mmHg 71%
    23:00 +25°C° 0 mm 2 mps 757 mmHg 74%

    1 April, Wednesday

    Time Temperature Precipitation Wind Pressure Humidity
    00:00 +25°C° 0 mm 2 mps 757 mmHg 77%
    01:00 +25°C° 0 mm 2 mps 756 mmHg 78%
    02:00 +24°C° 0 mm 2 mps 756 mmHg 80%
    03:00 +24°C° 0 mm 1 mps 756 mmHg 82%
    04:00 +24°C° 0 mm 1 mps 756 mmHg 83%
    05:00 +23°C° 0 mm 1 mps 756 mmHg 84%
    06:00 +23°C° 0 mm 1 mps 756 mmHg 85%
    07:00 +24°C° 0 mm 1 mps 757 mmHg 79%
    08:00 +25°C° 0 mm 2 mps 757 mmHg 74%
    09:00 +27°C° 0 mm 2 mps 757 mmHg 68%
    10:00 +28°C° 0 mm 2 mps 757 mmHg 61%
    11:00 +30°C° 0 mm 2 mps 757 mmHg 55%
    12:00 +31°C° 0 mm 1 mps 756 mmHg 48%
    13:00 +31°C° 0 mm 2 mps 756 mmHg 50%
    14:00 +31°C° 0 mm 3 mps 755 mmHg 52%
    15:00 +32°C° 0 mm 4 mps 755 mmHg 53%
    16:00 +30°C° 0 mm 4 mps 755 mmHg 60%
    17:00 +29°C° 0 mm 4 mps 755 mmHg 66%
    18:00 +27°C° 0 mm 4 mps 755 mmHg 72%
    19:00 +27°C° 0 mm 4 mps 755 mmHg 75%
    20:00 +26°C° 0 mm 4 mps 756 mmHg 78%
    21:00 +26°C° 0 mm 4 mps 756 mmHg 81%
    22:00 +25°C° 0 mm 3 mps 756 mmHg 81%
    23:00 +25°C° 0 mm 3 mps 755 mmHg 82%

    2 April, Thursday

    Time Temperature Precipitation Wind Pressure Humidity
    00:00 +25°C° 0 mm 2 mps 755 mmHg 82%
    01:00 +25°C° 0 mm 2 mps 755 mmHg 83%
    02:00 +25°C° 0 mm 1 mps 754 mmHg 85%
    03:00 +24°C° 0 mm 1 mps 754 mmHg 86%
    04:00 +24°C° 0 mm 1 mps 753 mmHg 86%
    05:00 +24°C° 0 mm 1 mps 753 mmHg 86%
    06:00 +24°C° 0 mm 1 mps 753 mmHg 86%
    07:00 +25°C° 0 mm 2 mps 753 mmHg 82%
    08:00 +25°C° 0 mm 3 mps 753 mmHg 79%
    09:00 +26°C° 0 mm 3 mps 753 mmHg 75%
    10:00 +26°C° 0.2 mm 4 mps 753 mmHg 75%
    11:00 +26°C° 0.2 mm 4 mps 753 mmHg 74%
    12:00 +26°C° 0.2 mm 5 mps 752 mmHg 74%
    13:00 +27°C° 0.1 mm 5 mps 752 mmHg 73%
    14:00 +27°C° 0.1 mm 5 mps 751 mmHg 72%
    15:00 +28°C° 0.1 mm 5 mps 750 mmHg 72%
    16:00 +27°C° 0.4 mm 5 mps 750 mmHg 72%
    17:00 +27°C° 0.4 mm 5 mps 750 mmHg 72%
    18:00 +27°C° 0.4 mm 5 mps 750 mmHg 72%
    19:00 +26°C° 0.1 mm 5 mps 750 mmHg 67%
    20:00 +25°C° 0.1 mm 5 mps 751 mmHg 62%
    21:00 +23°C° 0.1 mm 6 mps 751 mmHg 56%
    22:00 +22°C° 0 mm 6 mps 751 mmHg 58%
    23:00 +21°C° 0 mm 7 mps 751 mmHg 60%
    Show more